THORAD AGENA D DEB, 18616

Orbit data source: Space-Track

THORAD AGENA D DEB, 18616 is space debris in LEO originally from a launch on Tue, 30 Sep 1969 UTC launched from the Air Force Western Test Range (AFWTR). Debris objects in space refer to the collection of defunct objects orbiting the Earth. Examples of debris include non-operational satellites, rocket bodies, and fragments generated from explosions, collisions, or faulty payload assembly.

Loading next visibility...
Identifier
18616, 1969-082LB
Orbit
LEO
Country
Flag of USUS
Related business
Manufacturer
Unknown
Mission
Spacecraft
Bus & Motor
Unknown
Mass
Unknown
Launch date (UTC)
1969-09-30 (57 years ago)
Launch vehicle
Unknown
Launch site
Air Force Western Test Range (AFWTR)
Object type
Payload
Rocket body
Debris
Shape & HBR
Unknown shape, 0.1 m
Radar Cross Section
Medium (>0.1 m² and <1 m²)

Expand to show TLE details & history
Last TLE update: 3 days ago

TLE from 3 days ago
0 THORAD AGENA D DEB
1 18616U 69082LB  26171.08765366  .00000813  00000-0  65346-3 0  9994
2 18616  70.1403 207.8470 0163094 257.6908 100.5894 13.87949804944936
Epoch: 2026-06-20T02:06Z
TLE epoch observation values (Epoch: 2026-06-20T02:06:13.276Z)
Latitude
-0.00003°
Longitude
-92.01564°
Altitude
961.933 km
Speed
7.359 km/s
True Right ascension
13h 51m 23s
True Declination
0° 00' 00"
Sunlit
Object was in daylight at epoch
Visualization orbit readout
Latitude
Unknown
Longitude
Unknown
Altitude
Unknown
Speed
Unknown
Apparent Right ascension
Unknown
Apparent Declination
Unknown
Sunlit
N/A
Visualization observer readout
Local Sidereal Time
03:47:34
Azimuth
Unknown
Elevation
Unknown
Doppler factor
Unknown
Orbital elements
Apogee altitude
1,053.114 km
Perigee altitude
814.606 km
Semi-major axis
7,311.997 km
Eccentricity
0.01631
Inclination
70.1403°
RAAN
207.847°
Arg. of periapsis
257.6908°
True anomaly
102.41932°
Mean anomaly
100.5894°
Eccentric anomaly
101.50508°
Mean motion
3.47128 °/min
Orbital period
103.71 mins
BSTAR
0.00065346

Documentation

Showing up to 5 results
|